TimeEST,TemperatureF,Dew PointF,Humidity,Sea Level PressureIn,VisibilityMPH,Wind Direction,Wind SpeedMPH,Gust SpeedMPH,PrecipitationIn,Events,Conditions,WindDirDegrees,DateUTC
12:24 AM,48.2,46.4,93,29.89,9.0,Variable,3.5,-,N/A,,Overcast,0,2012-01-24 05:24:00
12:53 AM,46.9,45.0,93,29.89,9.0,SW,4.6,-,N/A,,Overcast,230,2012-01-24 05:53:00
1:51 AM,46.4,44.6,93,29.91,8.0,Calm,Calm,-,N/A,,Overcast,0,2012-01-24 06:51:00
1:53 AM,46.0,44.1,93,29.92,8.0,Calm,Calm,-,N/A,,Overcast,0,2012-01-24 06:53:00
2:53 AM,45.0,42.1,90,29.94,8.0,WSW,3.5,-,N/A,,Overcast,250,2012-01-24 07:53:00
3:36 AM,44.6,41.0,87,29.93,9.0,West,3.5,-,N/A,,Overcast,260,2012-01-24 08:36:00
3:53 AM,44.1,41.0,89,29.94,8.0,Calm,Calm,-,N/A,,Overcast,0,2012-01-24 08:53:00
4:02 AM,42.8,41.0,93,29.93,8.0,WNW,3.5,-,N/A,,Overcast,290,2012-01-24 09:02:00
4:53 AM,42.1,39.0,89,29.96,8.0,WNW,5.8,-,N/A,,Overcast,290,2012-01-24 09:53:00
5:17 AM,42.8,39.2,87,29.96,10.0,Calm,Calm,-,N/A,,Overcast,0,2012-01-24 10:17:00
5:53 AM,42.1,39.0,89,29.97,10.0,Variable,3.5,-,N/A,,Overcast,0,2012-01-24 10:53:00
6:53 AM,41.0,37.9,89,29.99,10.0,Calm,Calm,-,N/A,,Mostly Cloudy,0,2012-01-24 11:53:00
7:27 AM,37.4,37.4,100,29.99,2.0,Calm,Calm,-,N/A,,Scattered Clouds,0,2012-01-24 12:27:00
7:29 AM,37.4,35.6,93,29.99,1.0,Calm,Calm,-,N/A,,Mist,0,2012-01-24 12:29:00
7:33 AM,35.6,35.6,100,29.99,0.2,Calm,Calm,-,N/A,Fog,Fog,0,2012-01-24 12:33:00
7:41 AM,35.6,33.8,93,29.99,0.2,Calm,Calm,-,N/A,Fog,Fog,0,2012-01-24 12:41:00
7:53 AM,35.1,34.0,96,30.00,0.2,Calm,Calm,-,N/A,Fog,Fog,0,2012-01-24 12:53:00
8:00 AM,35.6,33.8,93,30.00,0.2,Calm,Calm,-,N/A,Fog,Fog,0,2012-01-24 13:00:00
8:09 AM,35.6,33.8,93,30.00,0.5,Calm,Calm,-,N/A,Fog,Fog,0,2012-01-24 13:09:00
8:13 AM,35.6,35.6,100,30.00,1.5,Calm,Calm,-,N/A,,Partly Cloudy,0,2012-01-24 13:13:00
8:16 AM,35.6,35.6,100,30.00,3.0,Calm,Calm,-,N/A,,Partly Cloudy,0,2012-01-24 13:16:00
8:53 AM,42.8,37.4,81,30.01,8.0,Calm,Calm,-,N/A,,Clear,0,2012-01-24 13:53:00
9:53 AM,44.1,37.9,79,30.03,10.0,Variable,3.5,-,N/A,,Clear,0,2012-01-24 14:53:00
10:53 AM,48.0,37.9,68,30.03,10.0,Variable,3.5,-,N/A,,Clear,0,2012-01-24 15:53:00
11:53 AM,48.9,36.0,61,30.01,10.0,West,9.2,19.6,0.01,,Clear,280,2012-01-24 16:53:00
12:53 PM,51.1,36.0,56,29.99,10.0,WNW,9.2,16.1,N/A,,Clear,290,2012-01-24 17:53:00
1:53 PM,51.1,35.1,54,29.98,10.0,Variable,5.8,18.4,N/A,,Clear,0,2012-01-24 18:53:00
2:53 PM,51.1,35.1,54,29.99,10.0,Variable,5.8,18.4,N/A,,Partly Cloudy,0,2012-01-24 19:53:00
3:53 PM,48.9,32.0,52,30.01,10.0,Variable,4.6,-,N/A,,Clear,0,2012-01-24 20:53:00
4:53 PM,46.9,30.0,52,30.04,10.0,Calm,Calm,-,N/A,,Clear,0,2012-01-24 21:53:00
5:53 PM,45.0,28.9,53,30.06,10.0,West,3.5,-,N/A,,Scattered Clouds,270,2012-01-24 22:53:00
6:53 PM,42.1,28.9,60,30.08,10.0,Calm,Calm,-,N/A,,Partly Cloudy,0,2012-01-24 23:53:00
7:53 PM,44.1,30.0,58,30.10,10.0,West,3.5,-,N/A,,Overcast,270,2012-01-25 00:53:00
8:53 PM,44.1,28.9,55,30.12,10.0,WNW,8.1,16.1,N/A,,Clear,290,2012-01-25 01:53:00
9:53 PM,43.0,28.9,58,30.13,10.0,WNW,8.1,-,N/A,,Partly Cloudy,300,2012-01-25 02:53:00
10:53 PM,43.0,28.9,58,30.14,10.0,Variable,4.6,-,N/A,,Overcast,0,2012-01-25 03:53:00
11:53 PM,42.1,28.0,58,30.14,10.0,Variable,3.5,-,N/A,,Mostly Cloudy,0,2012-01-25 04:53:00